www.pogodaiklimat.ru
Время
(UTC), дата
03 28.06
06 28.06
09 28.06
12 28.06
15 28.06
18 28.06
21 28.06
00 29.06
03 29.06
06 29.06
09 29.06
12 29.06
15 29.06
18 29.06
21 29.06
00 30.06
03 30.06
06 30.06
09 30.06
12 30.06
15 30.06
18 30.06
21 30.06
00 1.07
03 1.07
06 1.07
09 1.07
12 1.07
15 1.07
18 1.07
21 1.07
00 2.07
03 2.07
06 2.07
09 2.07
12 2.07
15 2.07
18 2.07
21 2.07
00 3.07
03 3.07
06 3.07
09 3.07
12 3.07
15 3.07
18 3.07
21 3.07
00 4.07
03 4.07
06 4.07
09 4.07
12 4.07
15 4.07
18 4.07
21 4.07
00 5.07
Ветер
(напр.,м/с)
Видим. Явления Облачность Т
(С)
Тd
(С)
f
(%)
Тe
(С)
Тes
(С)
Комфортность P
(гПа)
Po
(гПа)
Тmin
(С)
Tmax
(С)
R
(мм)
R24
(мм)
S
(см)
Ю 4 20 км 9/5 600 м
[Cb cap Ac trans]
+11.0 +6.5 74 +9 +10 прохладно 1010.8 946.6
З 5 20 км 10/10 600 м
[Cb cap]
+15.4 +4.1 47 +14 +14 по сезону 1009.9 946.7 +8.0 6
ЮЗ 4 20 км {ливн. дождь} 9/8 600 м
[Cb cap Ci fib]
+17.5 +2.0 35 +17 +19 по сезону 1009.8 946.9
Ю 4 20 км {ливн. дождь} 9/6 600 м
[Cb cap Ci fib]
+18.5 +0.4 30 +18 +20 по сезону 1009.4 946.8
ЮЗ 4 20 км 8/4 1000 м
[Sc diur, vesp Ci sp]
+17.5 +0.3 31 +17 +17 тепло 1009.3 946.5 +19.9
Ю 4 20 км 9/3 600 м
[Cb cap Ac trans]
+15.0 +1.1 39 +14 +14 тепло 1008.2 944.9 +19.9 0.0
Ю 5 20 км 10/10 600 м
[Cb cap]
+16.0 +3.3 43 +15 +15 тепло 1005.4 942.5
ЮЗ 5 20 км {ливн. дождь} 8/4 600 м
[Cb cap Ci sp]
+15.1 +5.3 52 +14 +14 тепло 1005.6 942.6
ЮЗ 5 20 км 4/0
[Ac cast Ci fib]
+18.4 +8.2 51 +18 +21 тепло 1005.5 943.2
ЮЗ 4 20 км 9/8 1000 м
[Cu med, cong Ac trans]
+21.2 +11.4 54 +23 +25 комфорт 1004.8 943.2 +14.8 0.0
З 7
{16}
2000 м гроза, ливневой дождь 10/10 600 м
[Cb cap]
+15.0 +11.0 77 +13 +13 по сезону 1007.6 944.5
Ю 3 20 км {гроза, ливн. дождь} 9/8 600 м
[Cb cap Ci fib]
+20.0 +12.4 62 +22 +23 комфорт 1006.7 944.7
ЮВ 1 20 км гроза без осадков {ливн. дождь} 8/6 600 м
[Cb cap Ac trans Ci fib]
+18.8 +13.9 73 +21 +21 комфорт 1006.6 944.4 +23.5
штиль 0 20 км {гроза, ливн. дождь} 8/8 600 м
[Cb cap]
+15.4 +13.7 90 +15 +15 тепло 1008.5 945.5 +23.5 10
ЮВ 1 20 км ясно +14.0 +12.2 89 +14 +14 тепло 1008.1 944.8
ЮВ 2 20 км 8/5 1000 м
[Sc Ac trans]
+15.2 +11.6 79 +15 +15 по сезону 1008.0 945.0
ЮВ 3 20 км 8/0
[Ac trans]
+19.6 +12.1 62 +21 +24 комфорт 1007.8 945.6
Ю 3 20 км ясно +26.8 +7.7 30 +27 +41 жарко 1005.8 945.2 +12.7 6
ЮЗ 3 20 км 8/4 1000 м
[Cu med, cong Ac trans]
+29.6 +8.8 27 +29 +34 жарко 1004.3 944.3
З 3 20 км 6/4 1000 м
[Cb cap Ac trans]
+30.2 +6.5 23 +29 +31 жарко 1003.8 943.9
штиль 0 20 км 8/5 1000 м
[Sc Ac trans Ci ing]
+24.8 +11.3 43 +26 +26 жарко 1005.0 944.1 +30.8
Ю 3 20 км 9/5 1000 м
[Sc Ac trans]
+24.2 +6.2 31 +24 +24 комфорт 1004.7 943.6 +30.8
ЮВ 2 20 км 8/0
[Ac trans Ci sp]
+21.8 +8.0 41 +23 +23 комфорт 1005.1 943.5
ЮВ 2 20 км 9/3 1000 м
[Sc Ac trans Cc]
+19.4 +7.9 47 +21 +21 комфорт 1005.7 943.6
ЮВ 3 20 км 8/3 1000 м
[Sc Ac trans Ci fib]
+24.0 +8.5 37 +25 +27 комфорт 1005.0 943.8
В 3 20 км {ливн. дождь} 8/4 600 м
[Cb cap Ac lent Ci fib]
+28.7 +8.9 29 +28 +34 жарко 1003.7 943.6 +18.9
СВ 2 20 км в посл. час гроза {ливн. дождь} 9/8 600 м
[Cb cap Ci fib]
+25.1 +8.9 36 +26 +28 жарко 1004.3 943.4
ЮВ 4 20 км {гроза, ливн. дождь} 9/8 600 м
[Cb cap Ac trans]
+28.0 +5.4 24 +27 +27 жарко 1002.5 942.3
ЮВ 3 20 км 9/8 1000 м
[Cb cap Ci fib]
+25.3 +7.7 33 +25 +25 комфорт 1003.1 942.3 +30.2
В 3 20 км 5/0
[Ci sp]
+22.0 +8.6 42 +23 +23 комфорт 1002.9 941.5 +30.2 0.1
штиль 0 20 км 6/6 1000 м
[Sc]
+21.4 +8.2 43 +23 +23 комфорт 1003.1 941.6
СВ 3 20 км 9/9 600 м
[Cb cap]
+17.9 +9.6 58 +18 +18 тепло 1002.8 940.6
В 3 20 км 9/6 600 м
[Cb cap Ac trans]
+24.1 +10.8 43 +25 +27 комфорт 1001.2 940.3
В 7 20 км 9/3 600 м
[Cb cap Ac trans Ci fib]
+27.8 +4.5 23 +27 +28 жарко 999.5 939.4 +17.6
В 5 20 км 8/4 600 м
[Cb cap Ac trans Ci fib]
+28.8 +4.5 21 +27 +30 жарко 998.2 938.3
Ю 5 10 км слаб. ливневой дождь 9/8 600 м
[Cb cap Ac trans]
+18.6 +12.5 68 +19 +19 холодно 1002.7 940.7
В 2
{18}
20 км {ливн. дождь} 4/3 600 м
[Cb cap Ac trans]
+17.6 +12.1 70 +18 +18 прохладно 1001.6 939.4 +30.3
ЮЗ 3 10 км слаб. ливневой дождь 4/4 600 м
[Cb cap]
+16.6 +12.8 78 +16 +16 прохладно 1005.0 942.5 +30.3 3
З 2 10 км слаб. ливневой дождь 6/6 600 м
[Cb cap]
+14.7 +9.6 71 +14 +14 прохладно 1004.1 941.1
Ю 1 20 км {ливн. дождь} 5/5 600 м
[Cb cap]
+12.6 +10.0 84 +13 +13 по сезону 1005.7 942.2
ЮЗ 3 20 км 4/0
[Ac trans Ci sp]
+16.4 +10.6 69 +16 +21 прохладно 1006.5 943.7
З 4 20 км 8/5 1000 м
[Cu med, cong Ac trans Ci sp]
+20.0 +13.9 68 +22 +26 комфорт 1006.1 944.2 +12.0 0.5
З 4 20 км 10/8 600 м
[Cb cap Ac und]
+18.4 +13.6 74 +19 +19 холодно 1007.5 945.2
З 4 10 км слаб. ливневой дождь 10/10 600 м
[Cb cap]
+14.8 +13.0 89 +14 +14 очень
холодно
1009.1 945.9
СЗ 4 10 км слаб. ливневой дождь 10/10 300 м
[Cb cap]
+13.0 +11.9 93 +11 +11 очень
холодно
1010.6 946.9 +21.1
СЗ 4 4000 м слаб. дождь 10/10 300 м
[Frnb Ns]
+13.2 +12.3 94 +11 +11 очень
холодно
1009.6 946.0 +21.1 2
СЗ 2 4000 м слаб. дождь 10/10 300 м
[Frnb Ns]
+14.6 +14.1 97 +14 +14 прохладно 1007.9 944.7
СЗ 2 10 км слаб. дождь 10/10 300 м
[Frnb Ns]
+14.5 +13.8 96 +14 +14 по сезону 1008.1 945.0
З 2 20 км {ливн. дождь} 10/10 600 м
[Cb cap]
+15.6 +14.8 95 +15 +15 прохладно 1008.2 945.3
С 5 20 км {ливн. дождь} 10/10 600 м
[Cb cap]
+19.1 +15.3 79 +20 +20 прохладно 1007.7 945.6 +13.0 24
С 7 20 км 9/8 600 м
[Cb cap Ci fib]
+21.5 +10.2 49 +23 +24 комфорт 1007.4 945.6
С 7 20 км 8/5 1000 м
[Cu med, cong Ci fib]
+22.0 +9.7 46 +24 +24 комфорт 1007.7 946.1
СЗ 4 20 км 9/6 600 м
[Cb cap Ac cast]
+19.5 +10.7 57 +21 +21 комфорт 1008.6 946.4 +23.0
СЗ 2 20 км 3/0
[Ac trans]
+16.2 +11.5 74 +16 +16 прохладно 1009.7 946.8 +23.0
С 2 20 км 8/4 600 м
[Cb cap Ac trans]
+14.0 +11.3 84 +13 +13 прохладно 1009.4 946.0
С 2 20 км 8/8 600 м
[Cb cap]
+14.8 +10.8 77 +15 +15 по сезону 1008.9 945.7
Местоположение метеостанции Караганда (Карагандинская область, Казахстан): широта 49.80 долгота 73.15 высота над уровнем моря 553 м.
В архиве по умолчанию представлена погода в Караганде за последнюю неделю. Архивные данные за месяц целиком и за предыдущие месяцы, начиная с января 2011 года, Вы можете получить, выбрав интересующий диапазон дат из раскрывающегося списка и нажав кнопку "Найти!".
*Определитесь, кто Вы:
Внимание! Время в таблицах - всемирное. Для получения местного времени необходимо прибавить поправку, которая равна 6 ч.
Смотрите также архив погоды в соседних городах и на ближайших метеорологических станциях:
Партнеры нашего сайта:      
Пояснения к столбцам:
  • Ветер - указаны скорость ветра в м/с - средняя за 10 мин, порывы в срок и между сроками (в фигурных скобках) и направление, откуда дует ветер: С - северный,
  • СВ - северо-восточный, В - восточный, ЮВ - юго-восточный, Ю - южный, ЮЗ - юго-западный, З - западный, СЗ - северо-западный.
  • Видимость - горизонтальная дальность видимости в метрах или километрах. При видимости от 1 до 10 км при отсутствии осадков обычно наблюдается дымка, при ухудшении видимости до 1 км и менее - туман. В сухую погоду видимость может ухудшаться дымом, пылью или мглою.
  • Явления - указаны атмосферные явления, наблюдавшиеся в срок или в последний час перед сроком; фигурными скобками обозначены явления, наблюдавшиеся между сроками (за 1-3 часа до срока); квадратными скобками обозначены град или гололедные отложения с указанием их диаметра в мм.
  • Облачность - указаны через наклонную черту общая и нижняя облачность в баллах и высота нижней границы облаков в метрах; квадратными скобками обозначены формы облаков: Ci - перистые, Cs - перисто-слоистые, Cc - перисто-кучевые, Ac - высококучевые, As - высокослоистые, Sc - слоисто-кучевые, Ns - слоисто-дождевые, Cu - кучевые, Cb - кучево-дождевые. Подробнее классификацию облаков см. в Атласе облаков (PDF).
  • T - Температура воздуха - температура, измеренная на высоте 2 м над землей.
  • Td - Температура точки росы - температура, при понижении до которой содержащийся в воздухе водяной пар достигнет насыщения.
  • f - Относительная влажность воздуха - влажноcть воздуха, измеренная на высоте 2 м над землей.
  • Te - Эффективная температура - температура, которую ощущает одетый по сезону человек в тени. Характеристика душности погоды. При расчете учитывается влияние влажности воздуха и скорости ветра на теплоощущения человека.
  • Tes - Эффективная температура на солнце - температура, которую ощущает человек, с поправкой на солнечный нагрев. Характеристика знойности погоды. Зависит от высоты солнца над горизонтом, облачности и скорости ветра. Ночью, в пасмурную погоду, а также при ветре 12 м/с и более поправка равна нулю.
  • P - Атмосферное давление - приведенное к уровню моря атмосферное давление.
  • Po - Атмосферное давление - измеренное на уровне метеостанции атмосферное давление.
  • Tmin - Минимальная температура - минимум температуры воздуха на высоте 2 м над землей.
  • Tmax - Максимальная температура - максимум температуры воздуха на высоте 2 м над землей.
  • R - Количество осадков - Количество выпавших осадков за период времени, мм. При наведении курсора мыши на число - период времени, за который выпало указанное количество осадков.
  • R24 - Количество осадков - Количество выпавших осадков за 24 часа, мм.
  • S - Снежный покров - Высота снежного покрова, см. При наведении курсора мыши на число - состояние снежного покрова и степень покрытия местности в баллах.